Regional Weather Roundup
Issued by NWS Charleston, SC

Home | Current Version | Previous Version | Text Only | Print | Product List | Glossary On
Versions: 1 2 3 4 5 6 7 8 9 10 11 12 13 14 15 16 17 18 19 20 21 22 23 24 25 26 27 28 29 30 31 32 33 34 35 36 37 38 39 40 41 42 43 44 45 46 47 48 49 50
000
ASUS42 KCHS 221512
RWRCHS

REGIONAL WEATHER ROUNDUP
NATIONAL WEATHER SERVICE CHARLESTON SC
1100 AM EDT SAT JUL 22 2017

NOTE: "FAIR" INDICATES FEW OR NO CLOUDS BELOW 12,000 FEET WITH NO
SIGNIFICANT WEATHER AND/OR OBSTRUCTIONS TO VISIBILITY.

NOT ALL STATIONS ARE QUALITY CONTROLLED. USE DATA WITH CAUTION...
ESPECIALLY DEWPOINT OBSERVATIONS.

SCZ027-030-031-034>040-042>050-221600-
...SOUTHEAST SOUTH CAROLINA...

CITY           SKY/WX    TMP DP  RH WIND       PRES   REMARKS
N CHARLESTON   MOSUNNY   88  73  61 VRB5      30.05S HX  95
WATERFRONT PRK   N/A     85  76  74 VRB3      30.04R HX  95
JOHNS ISLAND   FAIR      88  75  66 S8        30.05F HX  97
PINOPOLIS        N/A     84  75  74 CALM      29.99R HX  92
MONCKS CORNER  FAIR      86  73  66 CALM      30.05S HX  93
SUMMERVILLE    FAIR      86  73  66 S5        30.07R HX  93
BEAUFORT MCAS  SUNNY     87  74  64 SW7       30.07R HX  95
BEAUFORT ARPT  FAIR      86  72  62 SW7       30.06S HX  92
HILTON HEAD IS SUNNY     86  72  62 W7        30.08R HX  92
WALTERBORO     SUNNY     86  72  62 W3        30.07R HX  92
ALLENDALE      NOT AVBL

...SOUTHERN MIDLANDS AND PEE DEE...

CITY           SKY/WX    TMP DP  RH WIND       PRES   REMARKS
GEORGETOWN     FAIR      86  75  70 S6        30.06S HX  95
KINGSTREE      FAIR      86  73  66 S3        30.04F HX  93
ORANGEBURG     SUNNY     85  73  67 SW7       30.05S HX  91
BARNWELL       FAIR      86  75  70 SW5       30.06S HX  95
AIKEN          FAIR      84  73  70 SE7       30.08F HX  91
MANNING        FAIR      86  77  74 W5        30.05S HX  97
COLUMBIA       MOSUNNY   87  74  64 S6        30.03F HX  95
SUMTER         SUNNY     86  73  64 SW10      30.02S HX  92
FLORENCE       SUNNY     86  75  69 SW9       30.04S HX  95
MYRTLE BEACH   MOSUNNY   88  75  66 SW10      30.06S HX  97
N MYRTLE BEACH MOSUNNY   86  77  74 SW12      30.05S HX  97

$$

GAZ063-065-086>088-099>101-113>116-118-119-134>141-150-221600-
...SOUTHEAST GEORGIA...

CITY           SKY/WX    TMP DP  RH WIND       PRES   REMARKS
SAVANNAH ARPT  MOSUNNY   87  72  60 VRB6      30.08R HX  93
HUNTER AAF     SUNNY     87  73  61 W6        30.05S HX  94
FORT STEWART   SUNNY     85  71  62 SW7       30.06R HX  91
STATESBORO     SUNNY     85  73  67 CALM      30.07S HX  91
SYLVANIA       SUNNY     85  76  74 CALM      30.08S HX  94
CLAXTON        FAIR      85  75  71 S5        30.08S HX  94

...CSRA...CENTRAL AND FAR SOUTHEAST GEORGIA...

CITY           SKY/WX    TMP DP  RH WIND       PRES   REMARKS
THOMSON        SUNNY     84  74  70 W7        30.10F HAZE    HX  91
AUGUSTA-BUSH   SUNNY     86  75  69 SW6       30.05S HX  95
AUGUSTA-DANIEL SUNNY     85  71  63 S8        30.06F HX  90
SWAINSBORO     FAIR      82  73  74 SW5       30.08F
VIDALIA        SUNNY     84  73  70 W5        30.08F HX  91
EASTMAN        FAIR      85  65  51 SW8       30.10S
HAZLEHURST     FAIR      85  79  80 SW6       30.07S HX  98
ALMA           SUNNY     85  74  69 W7        30.08S HX  92
WAYCROSS       SUNNY     89  79  72 W3        30.08S HX 103
JESUP          NOT AVBL
BAXLEY         FAIR      84  82  94 W3        30.08S HX 101
BRUNSWICK      SUNNY     88  75  66 SW5       30.09S HX  97
SAINT SIMONS   SUNNY     87  72  60 W7        30.08S HX  93

$$

SCZ027-028-034-036>038-045-046-048>050-GAZ119-141-221600-
...LAKE AND SUPPLEMENTAL COASTAL OBSERVATIONS...

STATION/POSITION TIME  TEMP    WIND        PRES    WAVE   SWELL
                       AIR SEA DIR/SP/G            HT/PER HT/PER/DIR
                 (UTC) (F)     (DEG/KT/KT) (MB)    (FT/S) (FT/S/D)
WINYAH BAY       1345   83     230/  7     1018.0
LAKE MURRAY      NOT AVBL
ACE BASIN NERRS  1345   84     230/  2     1018.0
FORT PULASKI     1448   83 86  310/  5/  6 1018.7R
SAPELO ISLAND    1400   82        CALM     1018.0

$$

ANZ835-935-AMZ111-154-330-350-352-354-370-450-454-472-221600-
...C-MAN AND BUOY OBSERVATIONS...

STATION/POSITION TIME  TEMP    WIND        PRES    WAVE   SWELL
                       AIR SEA DIR/SP/G            HT/PER HT/PER/DIR
                 (UTC) (F)     (DEG/KT/KT) (MB)    (FT/S) (FT/S/D)
BUOY 41004       1450   83 84  240/  8/ 10 1017.6F   3/ 8   3/130/ 8
BUOY 41008       1450   80 82  250/  8/ 10 1018.4R   2/ 9   2/100/ 9
FOLLY BEACH CMAN 1400   83     200/ 10/ 11 1018.5R
CAPERS NEARSHORE 1408   82 83  230/  8/ 10 1017.7R
FRIPP NEARSHORE  1408   83 84  270/  4/  6 1017.9R


STATION/POSITION TIME  TEMP    WIND        PRES    WAVE   SWELL
                       AIR SEA DIR/SP/G            HT/PER HT/PER/DIR
                 (UTC) (F)     (DEG/KT/KT) (MB)    (FT/S) (FT/S/D)
5E ST. MARYS GA  1430      82                N/A     2/ 9
FRYING PAN BUOY  1450   83 84  230/ 12/ 14 1017.8R   3/ 8   2/150/ 8
BUOY 41025       1450   82 83  240/ 19/ 21 1016.0S   4/ 9   2/120/ 9
CAPE LOOKOUT NC  1400   83     240/ 10/ 12 1016.5S
BUOY 41002       1450   83 83  220/ 12/ 14 1019.6R   4/10   3/110/10
BUOY 41010       1450   84 85  200/ 12/ 14 1019.5R   3/ 8   2/ 80/ 8
ST AUGUSTINE FL  1500   85 80  200/  2/  3 1019.4F


$$




USA.gov is the U.S. government's official web portal to all federal, state and local government web resources and services.